This demonstration page uses our WeatherBlox Daily Observations layout. Learn more.

Left ArrowRight Arrow

39.95238, -75.16362

Hourly Observations for May 29, 2016

Temp ( °F °C ) Dew Point ( °F °C ) Humidity (%) Winds ( mph kmh ) Pressure ( in mb ) Visibility ( mi km ) Precip ( " mm )
12:54 am 00:54 Partly Cloudy 70 21.1 59 15 68 68 S 6 9 30.15 1021 10 16 0.00 0.00
1:54 am 01:54 Partly Cloudy 70 21.1 59 15 68 68 SSW 7 11 30.15 1021 10 16 0.00 0.00
2:54 am 02:54 Partly Cloudy 69 20.6 60 15.6 73 73 S 6 9 30.14 1021 10 16 0.00 0.00
3:54 am 03:54 Partly Cloudy 68 20 57 13.9 68 68 S 5 7 30.14 1021 10 16 0.00 0.00
4:54 am 04:54 Mostly Cloudy 67 19.4 56 13.3 68 68 S 6 9 30.15 1021 10 16 0.00 0.00
5:54 am 05:54 Mostly Cloudy 66 18.9 57 13.9 73 73 Calm 30.15 1021 10 16 0.00 0.00
6:54 am 06:54 Mostly Cloudy 67 19.4 58 14.4 73 73 S 3 6 30.16 1022 10 16 0.00 0.00
7:54 am 07:54 Mostly Cloudy 69 20.6 60 15.6 73 73 S 3 6 30.16 1022 10 16 0.00 0.00
8:54 am 08:54 Mostly Cloudy 73 22.8 62 16.7 69 69 SW 6 9 30.16 1021 10 16 0.00 0.00
9:54 am 09:54 Mostly Cloudy 76 24.4 62 16.7 62 62 SSW 6 9 30.15 1021 10 16 0.00 0.00
10:54 am 10:54 Partly Cloudy 79 26.1 61 16.1 54 54 SSW 8 13 30.15 1021 10 16 0.00 0.00
11:54 am 11:54 Mostly Cloudy 82 27.8 60 15.6 47 47 S 7 11 30.14 1021 10 16 0.00 0.00
12:54 pm 12:54 Mostly Cloudy 84 28.9 58 14.4 41 41 SSW 9 15 30.12 1020 10 16 0.00 0.00
1:54 pm 13:54 Mostly Cloudy 86 30 49 9.4 28 28 SSW 9 15 30.10 1019 10 16 0.00 0.00
2:54 pm 14:54 Mostly Cloudy 86 30 60 15.6 42 42 SSW 13 20 30.09 1019 10 16 0.00 0.00
3:54 pm 15:54 Mostly Cloudy 86 30 63 17.2 46 46 S 12 19 30.07 1018 10 16 0.00 0.00
4:54 pm 16:54 Mostly Cloudy 84 28.9 65 18.3 53 53 S 10 17 30.06 1018 10 16 0.00 0.00
5:54 pm 17:54 Mostly Cloudy 81 27.2 67 19.4 62 62 SSW 13 20 30.06 1018 10 16 0.00 0.00
6:45 pm 18:45 Mostly Cloudy with Light Rain 78 25.6 69 20.6 74 74 SSW 9 15 30.06 1018 8 13 0.00 0.03
6:54 pm 18:54 Mostly Cloudy with Light Rain 77 25 69 20.6 77 77 SW 14 22 30.08 1019 8 13 0.01 0.25
7:20 pm 19:20 Mostly Cloudy 75 23.9 70 21.1 84 84 SSW 9 15 30.09 1019 10 16 0.02 0.51
7:36 pm 19:36 Mostly Cloudy with Light Rain 75 24 70 21 83 83 SSW 9 15 30.09 1019 8 13 0.00 0.00
7:54 pm 19:54 Mostly Cloudy with Light Rain 74 23.3 70 21.1 88 88 S 7 11 30.07 1018 8 13 0.04 1.02
8:25 pm 20:25 Cloudy with Light Rain 74 23.3 70 21.1 88 88 S 7 11 30.09 1019 6 10 0.02 0.51
8:54 pm 20:54 Cloudy with Light Rain 74 23.3 71 21.7 91 91 SW 8 13 30.07 1018 5 8 0.08 2.03
9:00 pm 21:00 Cloudy with Light Rain 73 22.8 71 21.7 94 94 SW 8 13 30.06 1018 4 6 0.01 0.25
9:17 pm 21:17 Mostly Cloudy with Light Rain 73 22.8 71 21.7 94 94 SW 5 7 30.06 1018 6 10 0.03 0.76
9:54 pm 21:54 Mostly Cloudy with Light Rain 73 22.8 70 21.1 90 90 SSW 3 6 30.08 1019 5 8 0.06 1.52
10:08 pm 22:08 Mostly Cloudy with Light Rain 73 22.8 70 21.1 90 90 SW 7 11 30.09 1019 5 8 0.04 1.02
10:23 pm 22:23 Mostly Cloudy with Light Rain 73 22.8 70 21.1 90 90 SW 6 9 30.09 1019 4 6 0.10 2.54
10:54 pm 22:54 Cloudy with Light Rain 72 22.2 69 20.6 91 91 SSW 6 9 30.07 1018 4 6 0.19 4.83
11:25 pm 23:25 Cloudy with Light Rain 72 22.2 70 21.1 94 94 SW 7 11 30.06 1018 5 8 0.10 2.54
11:54 pm 23:54 Cloudy with Light Rain 71 21.7 68 20 90 90 W 6 9 30.06 1018 5 8 0.12 3.05

Powered by AerisWeather